Helicity
76 73 69 92 111 118 124 135 163 206 252 296 318 293 261 196 182 150 150 149 140 101 85 81 103 107 126 126 123 136 146 171 178 210 217 242 254 264 261 291 313 312 230
115 93 97 117 155 182 167 173 185 218 271 361 394 392 352 308 315 247 198 173 146 134 131 138 137 134 140 129 136 146 165 171 184 222 232 252 263 263 199 227 262 300 309
138 154 147 145 191 208 229 203 256 332 381 385 472 484 464 345 296 225 199 191 150 118 100 107 116 118 121 137 140 138 154 172 189 225 285 316 297 294 286 215 208 181 263
138 195 184 187 210 257 306 297 336 408 438 453 443 403 343 318 277 234 210 163 125 115 109 107 112 111 113 110 114 126 157 182 200 230 267 290 246 271 238 319 285 231 205
152 184 197 198 263 315 335 404 456 461 481 436 419 407 395 306 250 224 183 153 118 107 96 91 88 78 87 105 125 145 172 193 210 247 259 286 321 267 319 272 239 234 226
175 201 200 233 289 326 360 393 440 461 422 383 360 327 284 261 234 202 159 116 99 91 69 61 64 75 89 110 137 150 162 184 209 234 250 274 315 293 282 320 222 187 152
197 261 250 267 353 425 428 432 409 427 393 356 313 282 247 208 166 135 122 119 94 57 36 41 45 74 102 117 137 164 177 189 211 198 223 219 245 214 190 210 215 212 184
180 211 236 276 393 449 431 412 392 378 335 311 256 204 171 158 134 110 100 66 37 23 30 52 83 95 120 134 148 180 187 180 202 178 191 230 238 225 206 239 239 232 220
247 212 233 311 420 469 434 400 391 357 299 261 226 189 159 133 117 83 54 42 34 44 66 97 107 122 127 130 147 169 165 175 184 204 230 283 249 214 178 169 160 204 170
165 227 248 314 395 426 437 399 345 303 287 245 196 155 120 99 85 72 60 51 55 79 99 109 128 136 143 135 138 170 172 196 216 209 217 225 194 167 165 99 52 89 121
238 242 247 266 359 448 440 417 387 331 267 221 179 138 120 104 86 68 55 58 91 105 117 131 123 123 128 123 163 164 161 177 173 176 177 160 151 154 126 102 89 89 122
184 219 249 322 410 489 477 450 366 319 246 199 164 146 124 100 76 60 63 95 95 106 118 116 122 121 126 137 169 185 165 152 148 157 163 162 172 145 154 178 181 149 151
152 180 274 321 448 506 497 444 371 284 244 189 148 134 113 89 67 62 87 95 113 121 122 137 124 113 119 146 161 146 133 130 140 161 169 175 178 178 177 158 153 155 136
157 236 271 315 448 512 491 409 344 279 225 176 150 132 112 88 73 93 96 98 104 105 114 116 108 113 113 128 127 121 117 124 149 148 153 154 151 140 117 126 130 145 137
222 218 288 399 505 539 461 384 317 259 215 176 152 134 109 84 96 93 89 87 103 107 110 100 96 90 117 116 90 75 89 111 124 119 148 145 116 92 121 141 129 121 155
170 209 301 449 579 533 463 386 293 223 176 167 159 124 89 91 93 82 81 93 100 106 98 80 74 89 95 51 35 48 96 82 113 137 104 87 88 101 97 115 120 168 178
201 272 362 564 582 474 435 340 267 213 178 165 141 106 96 97 85 79 90 94 89 82 59 64 80 63 44 44 30 46 73 77 75 84 91 81 91 98 149 122 140 195 213
207 299 497 616 521 466 425 299 230 227 168 125 96 82 93 79 67 71 77 82 75 60 68 75 64 51 51 39 44 24 68 75 72 71 44 37 91 231 260 245 238 167 173
332 508 559 547 630 681 450 240 250 250 163 123 114 97 77 70 68 70 68 63 56 64 81 77 68 45 48 42 24 17 64 61 46 47 19 45 119 199 185 187 110 95 107
400 489 511 768 671 508 283 275 258 244 154 132 97 85 75 69 65 59 49 48 48 72 92 82 58 35 53 29 -1 34 44 29 45 35 27 73 115 198 159 170 189 151 126
429 526 717 614 560 323 328 325 286 185 149 103 87 77 70 54 50 33 28 44 56 83 71 65 41 46 45 19 -5 34 25 28 36 15 30 62 137 137 135 172 221 77 164
558 629 478 443 498 369 368 329 215 165 120 100 81 69 65 57 39 25 31 44 57 50 61 61 47 48 28 7 12 26 32 25 32 10 22 6 47 113 163 131 172 195 206
594 545 552 531 492 425 302 257 173 126 108 79 61 60 69 44 33 45 46 43 40 58 66 48 27 16 2 -1 7 10 44 35 27 5 -8 22 15 41 91 212 161 103 100
443 455 517 559 555 284 166 138 140 120 94 71 70 67 64 63 60 55 49 41 43 42 28 10 8 1 -16 -5 -2 -3 25 23 18 35 6 6 12 28 37 36 70 86 70
355 482 545 450 189 145 152 173 150 107 75 68 71 62 83 93 70 64 55 54 55 24 10 9 4 -18 -9 5 2 -10 -3 -4 4 13 27 8 26 56 47 30 32 44 44
500 511 131 73 115 128 153 144 114 86 72 71 73 98 110 93 59 58 77 90 80 61 37 29 9 3 4 6 10 12 18 -5 2 24 49 64 55 43 37 42 49 71 80
Wind_Speed
38 34 27 20 15 10 3 3 4 6 9 10 11 15 16 17 18 20 24 26 29 26 29 33 39 43 48 54 58 60 64 66 68 77 81 79 76 77 75 72 73 71 66
39 34 30 23 17 14 8 6 5 8 14 17 17 18 14 17 20 23 25 27 30 33 37 41 47 52 58 63 66 69 72 73 69 78 85 93 83 78 78 75 74 74 73
42 34 31 27 21 17 12 10 7 10 17 19 17 15 16 19 21 24 27 31 34 40 45 50 56 61 64 67 70 71 75 81 77 75 78 91 94 92 78 76 75 75 77
40 34 32 29 23 18 12 9 8 8 14 17 15 16 21 25 27 29 32 36 41 46 52 57 61 66 69 72 73 74 77 81 88 84 79 83 94 105 115 85 81 79 78
37 34 31 26 21 14 8 5 2 4 13 17 17 19 22 23 26 33 39 44 48 54 58 63 67 70 72 76 78 79 81 82 87 88 89 89 88 88 97 119 102 89 81
38 33 27 21 17 9 6 3 3 5 10 16 17 18 22 28 35 41 47 51 54 58 62 67 71 74 77 78 80 82 83 84 85 87 87 88 89 91 94 103 110 101 92
40 33 29 23 17 12 8 5 4 6 9 15 20 23 28 34 39 45 51 57 62 65 68 71 73 75 77 80 81 83 85 85 86 86 87 85 88 89 89 91 98 101 90
34 32 29 24 20 15 11 8 7 7 11 16 23 28 32 39 43 48 55 61 65 68 70 72 75 79 80 82 82 85 84 85 85 87 86 89 87 79 74 79 84 94 89
38 34 29 25 21 19 15 13 10 9 12 19 24 31 37 42 49 54 58 62 65 69 72 76 80 80 81 82 83 84 86 85 86 87 87 86 79 69 69 74 74 75 71
34 31 29 26 21 20 17 15 12 12 14 19 26 32 39 45 52 57 63 67 69 71 76 79 79 83 83 83 83 86 87 88 87 86 86 78 71 72 71 65 60 58 62
36 30 28 24 22 21 19 16 14 14 17 22 28 34 41 49 55 61 65 68 71 74 76 78 81 82 84 83 85 90 93 92 90 86 80 71 67 62 59 66 71 66 69
35 29 27 25 24 23 20 17 16 17 20 25 32 38 45 53 60 65 69 70 72 72 75 79 81 82 84 88 89 91 89 90 88 83 75 73 72 67 67 69 71 73 78
35 29 29 29 27 26 24 21 19 21 25 29 35 43 50 57 64 68 70 70 72 76 79 81 82 84 85 86 86 84 88 85 83 77 74 76 71 70 72 70 70 67 68
35 34 32 31 28 28 27 24 23 24 28 34 40 47 54 60 65 67 68 71 74 78 79 79 80 81 81 82 84 85 84 84 77 70 67 69 67 65 62 57 55 57 52
43 39 36 33 32 30 28 26 26 28 29 36 43 50 57 61 64 66 70 72 74 76 76 77 76 76 75 77 81 83 83 80 69 68 68 64 59 49 45 49 49 45 43
47 42 40 37 35 31 29 29 30 30 31 37 45 53 58 60 64 68 70 72 74 73 73 71 70 73 74 75 77 80 78 72 68 73 70 63 53 50 46 45 45 43 36
56 52 47 41 34 31 29 32 31 29 34 41 48 53 56 60 65 66 68 71 70 68 68 68 70 72 72 72 75 76 71 67 71 73 70 73 65 62 44 41 37 41 47
55 48 42 36 33 28 29 28 30 31 38 44 48 51 55 59 61 63 66 65 64 62 64 65 67 69 68 70 73 75 65 67 69 66 72 76 78 70 60 34 28 31 29
53 44 38 36 30 29 29 29 31 31 36 43 47 51 53 56 58 62 63 61 60 62 61 62 64 65 66 67 73 80 74 71 64 68 74 76 80 82 82 66 42 17 9
41 38 36 33 33 33 30 26 28 32 39 42 46 47 49 52 55 56 56 55 56 56 57 58 57 59 62 65 72 78 71 72 66 66 70 74 78 78 73 57 51 41 17
40 37 34 38 36 33 29 28 30 34 36 39 41 42 44 47 48 50 53 52 53 53 52 52 53 55 61 65 69 73 72 74 65 64 66 70 75 72 68 56 45 39 33
37 38 38 36 32 29 27 30 31 27 31 35 36 38 39 41 44 48 49 50 51 50 50 51 51 52 59 61 66 68 69 70 65 64 60 63 66 63 62 53 49 39 23
34 32 32 32 25 23 22 22 20 21 27 32 34 32 34 39 43 44 45 48 47 47 46 45 47 48 55 59 63 64 66 66 60 64 59 56 59 57 55 50 47 41 38
28 28 30 25 22 18 16 15 15 20 25 30 31 32 34 38 40 38 38 42 41 40 41 40 43 48 54 58 61 61 60 62 59 55 60 54 51 51 52 49 46 41 35
24 27 22 20 19 14 12 13 17 23 26 29 30 32 33 37 36 34 36 35 35 36 34 38 43 48 52 55 57 59 59 57 55 55 60 63 54 49 46 45 42 40 36
24 19 19 17 16 11 10 16 19 24 28 29 30 32 33 32 30 26 30 31 33 34 35 37 41 44 48 52 54 56 57 57 55 55 59 61 61 56 49 43 39 34 32
Wind_Direction
295 299 306 312 315 321 304 231 194 216 249 258 262 278 288 299 311 318 318 318 318 320 318 319 318 318 316 316 316 315 314 313 312 310 307 304 301 298 296 293 290 288 282
286 289 292 295 297 300 292 268 250 234 267 267 276 284 287 303 309 315 321 324 323 321 321 319 317 316 314 313 313 313 312 311 312 309 309 308 307 303 297 293 289 285 281
276 277 281 283 289 290 287 273 263 255 271 270 274 280 292 297 304 309 316 319 320 319 318 316 315 314 314 313 313 313 311 310 309 306 305 308 305 308 307 299 293 290 284
268 270 275 278 282 289 292 284 272 262 262 269 257 271 274 283 295 305 311 314 317 317 317 316 315 314 313 313 313 312 310 309 306 305 301 298 301 301 301 300 298 294 288
262 263 266 273 280 285 279 284 250 239 264 257 266 273 284 290 299 306 309 312 314 315 314 314 314 314 314 313 312 312 310 308 305 304 303 300 299 298 296 297 297 294 292
261 259 262 265 272 275 282 279 229 240 253 263 270 277 284 293 299 304 307 310 313 314 314 314 314 315 314 314 314 312 310 308 306 304 302 300 298 297 296 294 295 294 293
256 250 246 248 251 256 261 261 254 264 256 265 276 285 292 298 301 305 308 310 311 312 313 315 316 317 316 315 315 313 311 309 307 305 304 302 299 297 296 295 295 295 295
249 242 238 240 248 247 243 242 239 251 267 273 281 288 295 300 304 308 309 310 311 313 315 317 317 317 317 316 316 315 314 312 309 307 305 303 301 298 295 293 295 295 294
250 239 234 238 238 242 240 238 239 243 265 278 286 292 297 302 305 308 311 313 315 317 318 318 318 319 318 318 317 316 314 313 312 309 308 307 305 300 295 292 291 291 289
244 236 232 233 230 235 241 243 246 251 268 283 291 296 300 304 307 311 313 315 316 318 319 320 321 320 320 319 318 317 315 313 311 310 309 307 303 299 297 295 289 283 282
244 234 226 219 225 236 239 240 243 255 274 286 294 300 303 306 310 312 315 317 319 319 320 322 321 321 321 321 320 319 318 314 312 312 312 309 306 301 295 291 290 286 284
248 233 219 225 225 233 233 236 252 261 277 290 295 300 305 309 312 314 317 319 320 322 323 322 322 323 322 322 321 321 320 317 316 315 313 309 307 301 299 296 292 286 284
249 234 233 225 230 235 238 245 252 267 280 289 297 302 307 310 313 316 319 321 322 323 323 324 324 324 325 325 324 324 322 321 320 319 315 312 309 304 301 296 292 288 285
243 243 237 233 238 241 245 249 258 269 281 290 297 303 309 313 317 319 321 322 324 324 325 326 326 327 328 328 328 327 327 325 324 321 317 314 309 306 303 299 294 292 286
254 245 240 240 243 244 245 252 262 272 283 291 299 306 312 317 319 321 321 324 325 326 328 329 330 330 332 333 332 331 330 330 329 326 321 318 313 304 295 296 296 291 284
252 248 250 244 240 235 238 250 260 273 285 295 303 310 314 318 320 321 324 326 328 330 331 332 333 335 336 335 336 335 334 334 332 332 330 329 324 317 303 284 265 259 265
257 254 247 242 230 229 241 252 259 274 288 299 306 312 316 319 321 324 327 329 331 333 334 336 337 337 338 341 341 343 341 341 338 338 336 330 331 330 323 308 272 248 232
256 250 244 234 223 231 248 253 261 278 291 300 308 314 318 321 325 328 329 332 334 336 337 339 341 341 344 346 349 347 348 346 345 346 338 332 330 338 338 319 266 249 238
250 242 231 219 224 239 248 249 264 280 294 303 310 316 320 324 328 329 331 335 336 337 340 342 344 346 349 354 353 346 350 350 351 348 336 333 333 331 328 331 346 343 218
239 233 218 219 236 249 238 248 267 286 296 306 314 319 325 327 329 333 336 339 339 341 344 347 350 353 357 358 352 349 358 354 357 347 339 340 334 337 348 349 353 14 54
234 223 217 243 241 233 239 254 277 288 301 312 318 324 327 330 336 338 338 342 344 346 349 351 355 1 359 356 350 352 360 2 5 350 338 342 346 356 3 8 11 30 65
223 222 234 232 225 225 244 265 277 293 308 316 321 325 331 336 339 340 343 347 349 349 349 352 357 4 356 352 350 355 2 9 15 358 345 350 356 2 9 13 26 38 39
219 221 221 219 219 235 250 262 278 301 314 317 321 331 336 337 339 343 346 347 351 353 357 1 6 7 355 350 349 357 6 11 25 13 350 356 2 6 13 13 22 33 48
212 204 192 205 226 247 248 266 290 309 320 322 326 332 334 338 343 348 353 353 359 5 11 16 17 5 354 352 351 356 8 18 31 44 24 5 6 11 15 16 19 25 33
179 183 204 225 219 215 253 282 299 310 323 325 326 329 335 338 344 352 354 1 14 16 15 16 6 1 0 357 357 357 4 13 30 40 44 29 10 8 7 12 15 21 31
167 177 202 200 197 213 256 287 306 317 321 323 325 328 333 339 344 354 3 18 14 4 0 7 10 15 9 3 5 5 7 8 13 24 22 28 32 21 14 13 14 13 23